• Join FlightAware (Why Join?)
  • Login
  • US Flag 
11:26PM EDT


 

Airport Tracker/Info


-or-


 

Live Flight TrackerFlight Track Log ✈ SWA920 ✈ 02-May-2013 ✈ KBWI - KBOS

Flight Track Log - Related Links

Times and Time Zones

All times are in EDT time to prevent confusion due to time zone crossing. See the SWA920 flight status page for this flight to view local times or setup timezone preferences in your user account.

Time Position Orientation Groundspeed Altitude Reporting Facility
EDT Latitude Longitude Course Direction KTS MPH feet Rate Location/Type
10:01PM 39.1008 -76.6133 284° West 184 212 4,100  Level Washington Center
10:02PM 39.0803 -76.5569 115° Southeast 195 224 7,400 3,240 Climbing Washington Center
10:03PM 39.0958 -76.4608 78° East 203 234 10,700 2,820 Climbing Washington Center
10:04PM 39.1131 -76.3542 78° East 263 303 13,200 2,760 Climbing Washington Center
10:05PM 39.1325 -76.2339 78° East 302 348 16,200 2,820 Climbing Washington Center
10:06PM 39.1559 -76.5792 284° West  Level FlightAware Approximate
10:06PM 39.1581 -76.1056 76° East 341 392 18,800  Level Washington Center
10:07PM 39.1858 -75.9719 75° East 369 425 21,500 2,640 Climbing Washington Center
10:08PM 39.2547 -75.8650 50° Northeast 375 432 24,200 2,400 Climbing Washington Center
10:09PM 39.3300 -75.7553 48° Northeast 388 447 26,300 1,860 Climbing Washington Center
10:10PM 39.4094 -75.6400 48° Northeast 402 463 28,000 1,860 Climbing Washington Center
10:11PM 39.5567 -75.4267 48° Northeast 431 496 31,600 1,740 Climbing New York Center
10:12PM 39.6364 -75.3078 49° Northeast 436 502 33,000 660 Climbing New York Center
10:14PM 39.7178 -75.1942 47° Northeast 436 502 33,000  Level New York Center
10:14PM 39.7994 -75.0725 49° Northeast 448 516 33,000  Level New York Center
10:15PM 39.8831 -74.9503 48° Northeast 443 510 33,000  Level New York Center
10:16PM 39.9792 -74.8261 45° Northeast 438 504 33,000  Level New York Center
10:17PM 40.0625 -74.7061 48° Northeast 438 504 33,000  Level New York Center
10:18PM 40.1456 -74.5861 48° Northeast 443 510 33,000  Level New York Center
10:19PM 40.2267 -74.4681 48° Northeast 443 510 33,000  Level New York Center
10:20PM 40.3214 -74.3669 39° Northeast 438 504 33,000  Level New York Center
10:22PM 40.4406 -74.1689 52° Northeast 433 498 33,000  Level Boston Center
10:23PM 40.5133 -74.0425 53° Northeast 433 498 33,000  Level Boston Center
10:24PM 40.5836 -73.9322 50° Northeast 433 498 33,000 -540 Level Boston Center
10:25PM 40.6542 -73.8078 53° Northeast 428 493 32,000 -2,400 Descending Boston Center
10:26PM 40.7328 -73.6589 55° Northeast 440 506 28,300 -3,180 Descending Boston Center
10:27PM 40.8028 -73.5369 53° Northeast 440 506 25,700 -2,160 Descending Boston Center
10:28PM 40.8706 -73.4172 53° Northeast 424 488 24,000 -900 Descending Boston Center
10:29PM 40.9422 -73.3167 47° Northeast 392 451 24,000  Level Boston Center
10:30PM 41.0139 -73.2131 47° Northeast 380 437 24,000 -300 Level Boston Center
10:31PM 41.0833 -73.1036 50° Northeast 385 443 23,500 -540 Descending Boston Center
10:32PM 41.1383 -72.9692 61° Northeast 391 450 23,000 -300 Descending Boston Center
10:33PM 41.1867 -72.8372 64° Northeast 396 456 23,000  Level Boston Center
10:34PM 41.2350 -72.7106 63° Northeast 391 450 23,000  Level Boston Center
10:35PM 41.2833 -72.5892 62° Northeast 391 450 23,000  Level Boston Center
10:36PM 41.3231 -72.4869 63° Northeast 386 444 23,000  Level Boston Center
10:37PM 41.3811 -72.3350 63° Northeast 386 444 23,000  Level Boston Center
10:38PM 41.4331 -72.1992 63° Northeast 386 444 23,000 -120 Level Boston Center
10:39PM 41.4828 -72.0744 62° Northeast 386 444 22,800 -1,440 Descending Boston Center
10:40PM 41.5303 -71.9519 63° Northeast 376 433 20,200 -2,400 Descending Boston Center
10:41PM 41.5714 -71.8436 63° Northeast 371 427 18,000 -2,340 Descending Boston Center
10:42PM 41.6186 -71.7153 64° Northeast 359 413 15,100 -2,640 Descending Boston Center
10:43PM 41.6678 -71.5786 64° Northeast 341 392 12,300 -2,040 Descending Boston Center
10:44PM 41.7128 -71.4919 55° Northeast 322 371 11,100 -660 Descending Boston Center
10:45PM 41.7664 -71.4047 50° Northeast 281 323 11,000 -60 Descending Boston Center
10:46PM 41.8053 -71.3400 51° Northeast 262 302 11,000 -540 Level Boston Center
10:47PM 41.8464 -71.2753 50° Northeast 257 296 10,000 -1,320 Descending Boston Center
10:48PM 41.9125 -71.2264 29° Northeast 244 281 8,400 -1,680 Descending Boston Center
10:49PM 41.9831 -71.1917 20° North 239 275 6,700 -1,560 Descending Boston Center
10:50PM 42.0389 -71.1656 19° North 239 275 5,300 -1,380 Descending Boston Center
10:51PM 42.1072 -71.1306 21° North 239 275 4,000 -1,140 Descending Boston Center
10:52PM 42.1333 -71.1167 22° Northeast 215 247 3,800 -780 Descending KA90
10:53PM 42.1833 -71.1000 14° North 210 242 3,000 -600 Descending KA90
10:54PM 42.2333 -71.0667 26° Northeast 161 185 2,700 -600 Descending KA90
10:55PM 42.2667 -71.0500 20° North 151 174 1,900 -780 Descending KA90
10:56PM 42.3000 -71.0333 20° North 129 148 1,100 -780 Descending KA90
10:57PM 42.3333 -71.0167 20° North 131 151 400 -780 Descending KA90
10:59PM 42.3500 -71.0000 North  Level FlightAware Approximate